Weather in Primorskiy

Russia / Krasnodar Krai     45°15′49″N   36°54′45″E
temp.,
°C
wind,
m/s
gust,
m/s
humid.,
%
clouds,
%
prec.,
mm/h
press.,
hPa
HPBL,
m
21 june, mon
mon2100:00+21sw11930 0.0 101026
03:00+21wnw11920 0.0 101020
06:00+22ene22900 0.0 101077
09:00+26nne33670 0.0 1010331
12:00+28ne45613 0.0 1010503
15:00+29nne67590 0.0 1009555
18:00+28ene46590 0.0 1008320
21:00+23sse33840 0.0 100858
22 june, tue
tue2200:00+22ssw47870 0.0 1009146
03:00+22sse33865 0.0 100964
06:00+22s458130 0.0 1009203
09:00+24s55735 0.0 1010446
12:00+25s557112 0.0 1011500
15:00+25s437195 0.0 1011562
18:00+25s32720 0.0 1011394
21:00+22ssw348615 0.0 101290
23 june, wed
wed2300:00+21ssw469148 0.0 1011200
03:00+21s47924 0.1 1012263
06:00+22s588696 0.0 1012553
09:00+23s677584 0.0 1013568
12:00+24s547088 0.0 1013597
15:00+25s43675 0.0 1013556
18:00+25sw326724 0.0 1013505
21:00+22wsw348598 0.0 1013109
24 june, thu
thu2400:00+21sw3385100 0.0 101363
03:00+21sw348699 0.0 1013119
06:00+21ssw46865 0.0 1013233
09:00+23s667857 0.0 1014446
12:00+24ssw677298 0.0 1013516
15:00+25s436970 0.0 1014540
18:00+24s327182 1.1 1014241
21:00+22sw228047 1.3 101425
25 june, fri
fri2500:00+21sw3383100 0.9 101373
03:00+21w33860 0.0 101352
06:00+22w228441 0.0 101383
09:00+25ssw437077 0.0 1013516
12:00+26ssw5468100 0.0 1013649
15:00+25s557152 0.0 1013575
18:00+24ssw447584 0.4 1013324
21:00+22ssw338315 0.4 101389